Wetbulb
50.28 50.24 50.01 51.28 51.30 57.76 64.01 65.76 65.62 63.82 65.16 64.31 62.96 61.86 61.48 61.37 61.44 62.43 63.51 63.59 63.66 64.32 62.16 61.98 62.23 61.69 61.20 60.84 60.39 58.96 57.93 58.39 59.38 58.02 57.75 58.34 59.35 59.73 60.59 61.08 61.12 60.63 61.21
47.36 48.33 49.71 49.42 52.65 56.13 62.32 64.64 64.72 64.25 65.15 64.91 61.84 61.61 61.22 60.89 61.33 61.77 62.38 63.17 63.02 62.30 62.11 60.99 61.04 60.66 60.01 59.85 59.46 58.78 58.84 58.35 58.85 56.49 55.87 54.13 56.51 58.04 59.33 60.59 61.03 60.52 61.18
48.59 49.51 49.07 48.75 51.39 55.90 60.85 63.15 64.17 64.41 64.72 64.08 61.86 60.36 59.91 59.90 59.22 59.72 60.21 61.47 62.47 61.99 62.28 62.01 60.79 60.27 59.50 58.76 59.83 60.26 59.07 57.29 58.20 58.07 55.64 52.47 52.08 54.89 57.69 58.33 59.43 59.34 59.42
48.33 48.96 49.39 48.69 51.73 56.86 60.97 63.16 63.35 63.36 62.71 63.30 60.06 61.08 58.12 57.20 57.92 59.19 60.07 60.86 61.32 61.44 61.23 61.76 60.12 59.63 59.24 58.93 60.85 60.59 59.25 58.73 56.85 55.00 56.91 55.28 54.36 51.66 52.00 56.34 57.69 58.46 58.70
47.31 50.20 51.88 49.95 50.94 56.15 60.19 60.60 59.96 59.72 58.93 58.66 59.33 58.24 56.68 56.99 57.72 57.93 57.97 57.63 58.79 61.03 61.15 60.55 60.63 60.25 60.73 61.06 60.58 59.75 58.80 58.98 58.14 56.20 54.92 55.02 53.37 52.40 52.27 51.38 54.21 56.90 58.10
47.61 53.22 54.94 54.51 54.16 55.61 56.72 58.04 57.61 56.79 57.02 56.94 56.69 56.33 56.00 55.53 56.01 56.49 56.38 56.97 57.59 61.35 61.35 60.75 58.91 58.84 58.84 59.13 60.63 60.16 59.20 58.37 58.25 57.67 54.90 52.97 51.74 52.33 50.53 50.30 52.06 52.41 55.27
49.80 52.65 53.82 54.69 55.84 56.23 56.85 57.42 57.01 55.78 56.26 56.18 56.15 56.11 55.68 55.58 56.03 56.27 56.24 55.89 56.04 56.48 58.33 58.47 57.72 57.99 60.20 61.48 61.00 59.28 58.90 58.62 58.00 57.25 56.21 56.51 55.37 54.89 53.87 53.25 52.18 52.28 54.77
50.89 52.69 54.30 55.44 56.20 56.93 57.04 56.96 56.47 55.57 56.09 56.34 56.09 56.22 56.19 55.64 55.58 56.08 56.04 55.75 55.78 56.69 58.20 57.81 58.12 60.30 61.05 58.92 58.08 60.04 59.63 58.71 57.31 57.54 56.66 56.13 56.44 55.99 55.03 53.61 52.19 50.66 51.81
50.43 52.79 54.37 55.35 56.21 56.42 56.81 56.88 56.67 56.19 56.32 56.20 56.08 55.73 56.14 56.30 56.14 55.89 55.96 55.99 56.30 57.15 57.57 58.37 58.90 60.38 59.32 57.36 57.58 58.96 58.93 58.43 58.21 57.28 54.31 54.38 55.61 56.07 55.90 55.18 53.99 52.06 48.96
50.06 52.93 53.63 54.16 55.27 56.20 56.94 57.10 56.92 55.93 55.67 55.42 55.73 56.16 56.25 56.59 56.62 56.82 56.93 56.74 57.74 59.32 59.89 60.11 60.27 60.31 59.86 58.97 57.37 56.46 57.18 56.26 55.85 55.88 54.69 55.33 55.92 55.54 55.83 55.61 55.44 54.09 52.07
45.84 50.97 52.73 53.71 54.60 55.50 56.30 56.61 56.63 56.77 56.85 56.51 55.64 55.61 55.17 55.35 55.90 56.06 56.54 56.78 56.54 56.70 56.74 57.30 58.44 59.38 59.68 59.92 58.78 56.44 57.23 57.58 57.77 58.08 56.78 55.42 54.85 55.22 55.38 55.52 54.98 53.20 52.40
47.50 51.73 52.85 53.89 54.50 55.67 56.39 56.76 57.29 57.11 56.83 55.17 55.63 55.55 55.35 54.75 54.17 54.11 54.16 55.04 53.88 55.65 55.62 55.90 56.27 57.58 58.83 59.37 59.31 57.56 58.52 58.17 57.80 57.31 56.63 55.58 55.46 54.78 55.20 55.30 52.83 51.93 51.32
45.71 49.00 54.37 53.98 54.86 55.33 56.04 56.26 57.07 56.31 56.28 55.79 55.13 54.69 54.29 54.10 53.64 52.34 54.05 54.28 54.23 54.19 54.34 55.13 55.09 56.23 57.90 58.32 58.78 57.09 57.50 56.77 56.48 56.63 56.23 54.91 54.29 53.39 52.94 52.80 51.54 50.90 50.65
46.36 48.12 53.02 53.72 54.32 55.07 55.43 55.82 55.63 55.93 55.19 54.82 54.13 53.58 53.55 53.22 52.73 52.98 53.56 53.57 53.99 53.94 54.40 54.92 55.22 55.75 56.78 56.86 55.95 54.72 53.75 53.25 53.08 53.49 53.96 53.86 53.31 52.58 51.84 51.24 50.32 49.53 48.27
45.50 46.92 48.18 53.53 54.27 54.39 54.77 55.48 55.17 54.82 54.62 53.63 53.11 52.74 53.18 52.77 52.38 52.49 53.06 53.51 53.64 53.76 54.18 54.12 54.45 55.28 55.13 54.99 53.96 53.05 52.37 51.96 51.72 52.30 52.70 52.96 53.96 54.46 53.28 50.73 49.24 48.45 47.06
45.29 46.36 48.58 51.78 53.81 53.11 53.97 54.48 54.20 54.32 54.17 52.98 52.28 52.35 51.81 51.80 52.06 52.55 52.90 52.88 52.97 53.35 53.56 53.45 53.56 53.62 54.33 54.96 54.03 52.92 51.20 50.80 50.63 50.14 51.62 54.23 54.77 54.80 54.72 53.74 52.38 49.61 46.41
45.05 46.20 48.35 48.49 53.70 53.30 53.73 53.48 53.24 53.67 52.77 52.05 51.66 51.54 51.51 51.47 51.77 52.20 51.91 51.68 51.92 52.73 52.63 52.76 52.90 52.85 53.64 54.62 53.80 52.16 49.79 48.70 48.20 47.60 45.09 44.40 45.85 46.66 45.65 48.84 49.15 48.31 48.22
45.43 46.49 47.88 49.41 49.51 54.48 53.75 53.77 53.26 52.59 51.88 51.22 51.12 51.21 51.03 50.51 51.05 50.94 50.61 50.67 51.08 51.19 51.64 52.04 52.35 52.40 53.12 53.76 52.41 50.17 46.18 45.12 44.64 42.99 42.12 41.54 40.95 41.03 38.43 36.93 36.00 35.65 35.57
46.67 47.33 48.61 49.49 49.83 53.53 53.80 53.26 52.03 51.55 51.01 50.48 50.61 50.50 50.21 49.87 50.17 49.49 49.37 49.96 49.97 50.02 50.43 51.06 51.10 51.00 50.78 51.06 48.77 45.23 42.84 42.06 41.82 42.45 42.07 40.70 40.69 45.66 44.30 38.63 37.64 36.80 38.04
47.77 47.92 48.97 50.00 50.87 53.49 53.86 52.68 51.28 50.77 50.16 50.88 50.06 50.09 50.06 49.81 49.22 48.75 48.34 48.91 49.24 48.94 49.47 49.12 48.88 49.47 47.43 48.56 47.74 44.13 42.29 41.00 41.34 41.11 42.18 46.17 42.73 45.39 43.86 37.05 36.64 35.38 34.80
47.74 49.14 49.58 50.27 51.59 52.85 53.45 52.02 51.10 50.27 50.92 50.52 49.81 49.51 49.63 49.32 49.18 48.55 48.63 48.52 48.12 47.93 47.51 47.04 47.10 46.83 46.78 46.34 47.19 45.77 41.15 40.53 40.48 40.98 40.74 42.94 46.28 45.41 44.29 41.59 35.88 36.01 35.91
44.93 47.18 50.91 52.39 52.33 52.78 53.04 51.60 50.61 50.92 50.34 49.60 49.00 48.64 48.92 49.24 49.13 48.15 47.74 47.46 46.31 45.36 45.17 45.38 45.78 46.57 46.50 47.72 46.89 46.13 44.61 43.75 40.55 39.93 40.09 43.91 46.04 45.75 45.24 42.57 44.18 42.66 37.38
42.79 45.52 48.43 52.10 52.54 52.85 53.02 51.09 49.92 49.95 49.35 48.60 48.07 48.37 48.83 49.12 48.95 47.51 46.57 45.52 44.86 43.57 43.58 43.97 43.37 43.10 43.35 44.23 47.01 46.42 46.38 45.79 40.76 40.55 44.62 45.70 45.23 44.04 42.42 43.04 41.94 38.16 32.35
41.56 43.49 44.13 51.17 51.42 52.81 53.00 51.33 49.96 49.72 48.78 47.69 47.79 48.22 48.20 48.34 48.51 47.99 47.20 45.59 44.07 43.12 42.57 41.98 39.68 39.79 40.70 40.44 41.30 42.67 43.58 45.82 42.79 42.01 38.79 40.00 40.49 40.37 38.49 35.01 34.48 32.55 31.10
40.62 41.98 42.37 48.95 51.42 52.70 51.74 50.67 49.96 49.33 47.90 47.74 47.74 47.93 48.49 48.01 47.50 47.43 46.63 45.69 44.57 44.62 42.31 40.01 40.16 39.73 38.62 38.93 42.43 40.50 38.41 36.56 39.01 35.20 33.08 31.74 31.21 30.77 30.66 30.58 30.54 30.31 29.87
39.67 40.33 41.65 42.34 50.79 51.60 50.79 49.95 49.88 49.20 48.08 47.19 47.41 47.87 47.74 46.89 46.28 45.23 44.00 46.92 46.68 45.95 44.68 43.74 41.56 40.87 44.05 45.89 45.07 43.97 42.93 42.80 40.80 33.29 30.77 29.33 29.12 29.05 29.33 29.07 28.73 29.34 30.41
MSLP
1004.88 1004.54 1004.62 1004.47 1004.88 1005.56 1005.85 1006.17 1007.05 1007.92 1008.77 1009.78 1010.55 1011.17 1011.44 1011.99 1012.40 1012.82 1012.97 1013.08 1013.37 1013.68 1014.00 1014.26 1014.64 1014.91 1015.27 1015.64 1016.07 1016.65 1017.04 1017.70 1017.83 1017.85 1018.60 1018.73 1018.74 1018.64 1018.64 1018.56 1018.73 1018.82 1018.96
1004.75 1004.16 1003.82 1004.17 1004.79 1004.75 1005.42 1005.77 1006.66 1007.30 1007.95 1008.93 1009.79 1010.26 1011.12 1011.81 1012.16 1012.64 1012.81 1012.94 1013.12 1013.50 1013.95 1014.27 1014.66 1015.00 1015.31 1015.72 1016.13 1016.39 1017.17 1017.67 1017.79 1018.05 1018.54 1019.07 1019.29 1019.19 1019.19 1018.79 1019.14 1019.20 1019.19
1004.07 1003.83 1003.68 1003.74 1004.26 1004.62 1005.07 1005.35 1006.04 1006.74 1007.53 1008.57 1009.61 1010.37 1011.12 1011.94 1012.50 1012.88 1013.06 1013.11 1013.19 1013.45 1013.71 1013.98 1014.43 1014.91 1015.21 1015.68 1016.03 1016.33 1016.68 1017.34 1017.83 1017.86 1018.05 1018.93 1019.06 1019.42 1019.44 1019.05 1019.24 1019.05 1019.35
1003.49 1003.27 1003.23 1003.33 1003.66 1004.21 1004.67 1004.77 1005.68 1006.55 1007.53 1008.31 1009.13 1009.89 1010.48 1011.64 1012.13 1012.46 1012.82 1013.11 1013.26 1013.50 1013.71 1013.80 1014.31 1014.83 1015.20 1015.55 1015.81 1016.28 1016.65 1016.93 1017.41 1018.03 1018.11 1018.08 1018.44 1019.17 1019.70 1019.62 1019.42 1019.55 1019.74
1004.08 1003.73 1003.02 1003.00 1003.60 1003.83 1004.51 1005.10 1005.89 1006.76 1007.54 1008.22 1008.99 1009.79 1010.54 1011.16 1011.80 1012.40 1012.90 1013.29 1013.47 1013.46 1013.58 1013.92 1014.18 1014.67 1015.03 1015.35 1015.52 1016.02 1016.45 1016.75 1017.02 1017.40 1018.04 1018.30 1018.55 1018.79 1019.13 1019.43 1019.48 1019.65 1019.76
1004.65 1004.50 1004.10 1003.76 1004.26 1004.71 1005.22 1005.41 1006.18 1007.34 1007.93 1008.49 1009.31 1009.88 1010.54 1011.21 1011.95 1012.60 1013.16 1013.33 1013.40 1013.50 1013.64 1013.85 1014.25 1014.48 1014.87 1015.10 1015.28 1015.70 1016.18 1016.56 1016.92 1017.25 1017.76 1017.94 1018.38 1018.65 1018.71 1019.09 1019.40 1019.54 1019.78
1005.42 1005.24 1005.03 1004.66 1004.74 1005.21 1006.04 1006.23 1006.84 1008.11 1008.60 1008.99 1009.62 1010.06 1010.69 1011.25 1011.69 1012.24 1012.77 1013.31 1013.57 1013.70 1013.88 1014.18 1014.53 1014.64 1014.75 1014.83 1015.12 1015.66 1016.09 1016.54 1016.93 1017.24 1017.56 1017.73 1017.93 1018.20 1018.64 1018.69 1019.22 1019.47 1019.78
1006.42 1005.95 1005.97 1005.71 1005.78 1005.75 1006.06 1007.12 1007.93 1008.59 1009.08 1009.40 1009.86 1010.24 1010.65 1011.23 1011.68 1012.13 1012.70 1013.25 1013.52 1013.67 1013.84 1014.24 1014.46 1014.52 1014.45 1014.87 1015.26 1015.72 1016.10 1016.44 1016.86 1017.06 1017.26 1017.61 1017.74 1017.89 1018.21 1018.62 1019.21 1019.51 1019.65
1008.31 1008.00 1007.01 1006.72 1006.78 1006.97 1007.43 1007.59 1008.49 1009.22 1009.61 1009.94 1010.22 1010.66 1011.05 1011.41 1011.88 1012.43 1012.78 1013.15 1013.42 1013.65 1013.88 1014.04 1014.28 1014.33 1014.60 1014.90 1015.28 1015.75 1016.05 1016.33 1016.60 1016.82 1017.34 1017.60 1017.80 1017.85 1018.11 1018.31 1018.69 1019.13 1019.65
1009.47 1009.20 1008.50 1008.10 1007.71 1007.90 1007.96 1008.17 1008.60 1009.37 1009.89 1010.39 1010.64 1011.03 1011.44 1011.70 1012.02 1012.46 1012.91 1013.17 1013.39 1013.57 1013.77 1014.03 1014.19 1014.34 1014.65 1014.91 1015.33 1015.75 1016.08 1016.34 1016.61 1016.86 1017.30 1017.52 1017.67 1017.80 1018.05 1018.33 1018.52 1018.87 1019.42
1010.59 1010.20 1009.30 1008.66 1008.69 1008.47 1008.51 1008.61 1008.86 1009.66 1010.19 1010.61 1011.10 1011.46 1011.77 1012.07 1012.38 1012.63 1012.96 1013.20 1013.54 1013.82 1013.95 1014.23 1014.38 1014.45 1014.62 1014.85 1015.27 1015.62 1015.93 1016.26 1016.55 1016.77 1017.10 1017.38 1017.54 1017.86 1018.02 1018.28 1018.56 1018.98 1019.33
1010.96 1010.33 1009.66 1009.10 1008.87 1009.13 1009.07 1009.26 1009.15 1010.02 1010.20 1011.06 1011.51 1011.69 1012.03 1012.32 1012.70 1013.04 1013.23 1013.57 1013.85 1014.00 1014.08 1014.28 1014.49 1014.54 1014.62 1014.79 1014.99 1015.46 1015.82 1016.14 1016.35 1016.70 1017.02 1017.26 1017.51 1017.72 1017.84 1018.13 1018.55 1019.10 1019.41
1011.09 1010.59 1009.68 1009.21 1008.72 1009.23 1009.45 1009.39 1009.75 1010.20 1010.72 1011.37 1011.59 1011.90 1012.28 1012.71 1013.10 1013.37 1013.59 1013.88 1014.08 1014.31 1014.32 1014.50 1014.62 1014.65 1014.69 1014.77 1015.01 1015.45 1015.79 1016.13 1016.48 1016.70 1017.00 1017.21 1017.44 1017.77 1018.04 1018.19 1018.78 1019.31 1019.75
1011.31 1010.94 1010.00 1009.24 1008.61 1009.18 1009.45 1009.78 1010.23 1010.70 1011.14 1011.66 1011.82 1012.14 1012.54 1012.97 1013.40 1013.71 1014.00 1014.13 1014.25 1014.33 1014.42 1014.56 1014.60 1014.70 1014.79 1015.05 1015.40 1015.80 1016.17 1016.53 1016.74 1017.03 1017.21 1017.45 1017.63 1017.92 1018.23 1018.58 1019.15 1019.58 1020.27
1011.24 1010.91 1010.55 1009.13 1008.81 1008.95 1009.33 1009.95 1010.33 1010.95 1011.36 1011.75 1012.13 1012.45 1012.90 1013.38 1013.70 1014.01 1014.16 1014.26 1014.40 1014.51 1014.66 1014.59 1014.64 1014.79 1014.87 1015.22 1015.58 1016.09 1016.56 1016.97 1017.32 1017.62 1017.60 1017.90 1018.11 1018.40 1018.63 1019.00 1019.58 1020.06 1020.64
1010.46 1010.25 1010.61 1008.31 1008.62 1008.77 1008.99 1009.81 1010.45 1010.87 1011.49 1011.99 1012.42 1012.85 1013.26 1013.63 1013.96 1014.23 1014.27 1014.37 1014.69 1014.83 1014.78 1014.80 1014.93 1015.07 1015.42 1015.61 1016.01 1016.44 1017.14 1017.63 1017.95 1018.18 1018.26 1018.43 1018.77 1019.06 1019.33 1019.77 1020.18 1020.48 1020.74
1010.28 1010.46 1011.14 1009.99 1008.64 1008.31 1008.62 1009.39 1010.05 1010.85 1011.49 1012.13 1012.55 1013.02 1013.45 1013.86 1014.21 1014.37 1014.40 1014.78 1015.06 1015.10 1015.14 1015.33 1015.58 1015.84 1016.16 1016.30 1016.74 1017.29 1017.81 1018.36 1018.78 1018.98 1019.40 1019.83 1020.17 1020.10 1020.42 1020.77 1020.94 1021.16 1021.38
1011.31 1010.96 1010.68 1008.98 1008.65 1008.15 1008.50 1009.20 1009.91 1010.60 1011.40 1012.10 1012.49 1013.13 1013.67 1014.10 1014.42 1014.50 1014.79 1015.26 1015.53 1015.61 1015.72 1016.03 1016.29 1016.48 1016.94 1017.16 1017.61 1018.02 1018.57 1019.14 1019.71 1020.06 1020.41 1020.66 1021.00 1021.27 1021.54 1021.93 1022.32 1022.69 1023.05
1009.80 1009.88 1009.46 1009.00 1008.46 1008.17 1008.30 1008.98 1010.01 1010.68 1011.18 1012.01 1012.55 1013.28 1013.83 1014.26 1014.62 1014.83 1015.26 1015.80 1016.03 1016.16 1016.48 1016.92 1017.13 1017.38 1017.95 1018.27 1018.52 1018.84 1019.46 1020.06 1020.52 1020.92 1021.25 1021.46 1021.71 1022.02 1022.38 1022.66 1023.24 1023.77 1024.07
1010.06 1009.74 1009.44 1008.90 1007.82 1007.82 1008.13 1008.89 1009.92 1010.71 1011.11 1011.88 1012.66 1013.42 1013.96 1014.42 1014.81 1015.22 1015.69 1016.34 1016.51 1016.70 1017.22 1017.67 1018.01 1018.40 1018.84 1019.18 1019.37 1019.77 1020.22 1020.75 1021.39 1021.79 1021.99 1022.09 1022.38 1022.76 1023.26 1023.53 1023.98 1024.54 1025.21
1009.94 1009.63 1009.23 1008.61 1007.98 1008.07 1008.33 1008.94 1009.86 1010.64 1011.09 1011.93 1012.87 1013.65 1014.17 1014.65 1015.09 1015.57 1016.15 1016.70 1016.99 1017.26 1017.81 1018.16 1018.82 1019.18 1019.60 1020.05 1020.30 1020.55 1020.84 1021.50 1022.14 1022.54 1022.76 1022.89 1023.04 1023.42 1023.78 1024.24 1024.47 1025.00 1025.63
1010.14 1009.98 1009.30 1008.33 1007.40 1007.46 1008.19 1008.98 1009.86 1010.64 1011.30 1012.11 1013.10 1013.83 1014.35 1014.90 1015.42 1015.81 1016.63 1017.10 1017.40 1017.93 1018.46 1018.82 1019.49 1020.04 1020.37 1020.61 1020.98 1021.26 1021.65 1022.29 1022.60 1023.17 1023.28 1023.46 1023.65 1023.92 1024.20 1024.59 1024.68 1025.28 1026.23
1010.34 1009.93 1009.14 1008.35 1007.99 1008.02 1008.28 1009.00 1010.03 1010.82 1011.58 1012.35 1013.35 1014.03 1014.57 1015.14 1015.69 1016.12 1016.83 1017.46 1018.07 1018.53 1019.14 1019.52 1020.15 1020.79 1021.14 1021.38 1021.55 1022.00 1022.44 1022.96 1023.37 1023.62 1023.80 1023.96 1024.38 1024.77 1025.11 1025.36 1025.72 1026.39 1027.02
1010.54 1010.30 1009.56 1008.34 1008.34 1008.46 1008.90 1009.22 1010.06 1010.88 1011.68 1012.54 1013.52 1014.23 1014.76 1015.37 1015.94 1016.47 1017.06 1017.58 1018.35 1018.96 1019.64 1020.22 1020.88 1021.48 1021.91 1022.21 1022.53 1022.91 1023.24 1023.49 1023.96 1024.55 1025.24 1025.27 1025.55 1025.97 1026.48 1026.87 1027.14 1027.48 1027.66
1010.54 1010.39 1009.79 1008.80 1008.50 1008.73 1009.26 1009.79 1010.35 1010.90 1011.87 1012.79 1013.64 1014.40 1015.00 1015.49 1016.12 1016.71 1017.30 1017.84 1018.59 1018.87 1019.66 1020.71 1021.15 1021.68 1022.37 1022.89 1023.10 1023.46 1024.02 1024.48 1024.93 1025.69 1026.02 1026.26 1026.88 1027.30 1027.59 1027.89 1028.14 1028.34 1028.38
1010.63 1010.10 1009.44 1009.03 1009.01 1009.06 1009.54 1010.11 1010.56 1011.04 1011.85 1012.92 1013.74 1014.45 1015.11 1015.76 1016.28 1017.00 1017.93 1018.52 1018.89 1019.49 1020.03 1020.65 1021.11 1021.96 1022.34 1022.82 1023.39 1023.96 1024.35 1024.74 1025.26 1026.05 1026.74 1027.26 1027.76 1028.12 1028.50 1028.80 1028.93 1028.95 1029.07
Wind_Speed
12 8 9 9 7 8 14 17 15 12 11 8 6 4 5 3 3 4 6 6 5 6 5 4 5 4 4 4 5 4 7 3 2 4 3 4 4 4 3 2 2 4 4
10 11 10 7 9 15 16 17 15 16 13 10 4 4 4 3 3 3 3 4 4 4 5 6 5 5 4 5 5 5 3 2 2 3 2 2 2 2 2 1 1 3 2
14 12 9 8 7 13 17 18 18 18 13 11 7 5 5 4 3 2 2 3 4 4 6 6 5 5 4 4 4 4 5 4 2 2 4 2 3 1 1 2 3 3 1
7 8 8 7 10 14 15 19 17 17 11 13 8 12 5 5 3 4 3 3 3 5 6 6 6 5 4 5 4 4 3 4 5 2 1 2 3 3 2 1 2 2 3
4 5 5 6 4 8 13 13 12 11 10 8 8 7 6 4 4 3 4 3 4 5 6 6 6 6 5 5 6 6 5 2 4 3 3 1 2 2 2 3 3 1 2
3 4 4 7 8 7 7 12 14 9 10 9 8 9 9 7 5 4 4 3 2 3 4 4 5 4 4 5 4 5 6 5 3 3 3 3 3 3 3 2 2 2 2
4 3 4 7 9 11 8 10 14 10 9 9 8 8 8 7 7 6 5 5 3 2 5 4 3 3 4 5 5 4 5 6 4 5 4 3 3 2 2 2 2 2 1
3 6 6 6 8 11 13 11 10 9 8 9 8 6 7 4 4 4 5 4 3 4 4 4 4 5 4 4 4 4 4 5 5 7 5 3 3 3 3 4 3 1 1
7 7 6 7 9 10 9 12 12 9 8 8 7 7 6 7 7 6 5 4 4 4 5 5 5 4 5 5 5 3 4 5 5 4 4 2 2 2 3 2 3 3 2
12 7 5 5 6 8 10 11 11 10 9 7 6 6 6 5 6 6 6 6 4 4 4 3 4 4 5 6 5 4 4 5 3 3 5 4 3 4 3 3 3 3 3
15 9 3 3 4 5 6 10 10 10 8 7 5 6 6 6 6 7 6 5 5 4 4 4 2 3 4 5 5 5 5 6 5 5 5 5 5 3 4 3 3 3 2
14 13 5 4 5 4 4 7 10 7 8 7 7 8 8 8 7 6 5 5 4 4 2 0 1 1 3 4 5 6 4 6 6 5 5 4 4 4 5 5 4 4 3
16 17 6 6 7 5 4 6 7 8 9 8 9 8 7 8 6 6 5 4 3 2 1 1 3 3 4 3 3 5 4 5 4 3 3 3 4 4 4 6 6 4 4
10 13 11 8 8 7 7 7 7 8 9 8 8 8 7 7 6 5 4 3 2 1 2 3 4 4 2 5 6 8 8 7 6 5 4 3 5 6 7 7 7 6 5
13 13 16 8 7 9 8 8 8 8 8 7 7 7 8 7 6 4 4 4 3 2 2 3 3 4 5 6 9 9 9 8 7 5 6 5 8 13 11 6 6 6 4
14 12 16 14 11 10 11 10 9 9 9 8 8 8 8 7 5 4 5 6 4 4 5 6 6 6 6 16 18 12 10 10 9 9 10 10 15 17 19 17 13 7 5
10 11 13 17 8 10 12 13 12 11 10 9 9 8 8 7 5 6 8 6 5 7 8 8 8 10 10 22 22 20 10 10 10 11 10 10 9 15 14 20 21 20 19
7 4 8 11 11 8 11 11 11 12 10 9 9 8 8 7 6 8 9 7 7 8 9 8 8 10 10 21 22 21 12 11 11 10 10 10 10 11 11 12 13 12 11
5 7 10 12 14 9 12 13 11 10 12 9 9 8 8 8 7 9 9 7 8 9 8 8 10 11 12 21 21 16 11 11 11 10 9 8 8 16 18 12 12 8 7
2 8 11 13 9 7 12 13 12 10 11 10 10 9 8 8 9 10 9 5 8 9 8 10 11 16 12 17 20 13 9 12 8 6 7 16 11 17 16 9 8 9 5
2 7 14 13 6 8 11 13 12 10 11 12 10 9 9 9 10 10 8 8 10 11 10 11 10 11 11 12 17 16 9 8 7 6 5 6 18 17 16 13 6 6 7
7 7 11 7 7 14 13 13 12 11 12 13 11 10 10 8 8 12 9 9 10 11 10 11 9 7 9 15 16 18 16 13 9 6 4 10 17 16 14 8 15 18 13
5 6 13 2 3 6 11 13 12 13 12 13 11 10 10 9 10 12 11 9 9 8 7 7 8 7 5 7 19 19 20 18 9 5 13 18 18 18 14 17 18 13 5
5 3 10 3 5 4 7 10 13 13 13 13 11 10 10 10 10 8 8 8 7 7 7 7 7 6 6 6 5 7 10 17 11 14 10 13 15 15 12 10 9 5 4
5 5 5 4 2 6 8 11 12 13 12 12 11 10 9 10 9 7 6 7 5 5 9 6 7 8 7 4 10 9 7 6 10 9 5 4 5 5 5 5 5 4 5
5 6 7 8 4 6 9 10 11 13 14 12 10 8 8 7 7 7 6 8 12 14 14 14 10 5 13 18 17 17 17 18 15 4 4 4 4 5 4 4 4 4 6
Wind_Direction
257 237 228 254 174 183 176 176 164 153 144 145 149 140 149 137 118 143 154 149 153 157 155 137 135 141 134 142 127 100 115 93 141 98 69 45 15 41 56 53 77 109 121
257 254 249 207 185 172 187 170 166 161 161 159 152 127 135 132 126 139 155 163 159 145 160 160 158 157 131 135 148 142 116 95 228 110 104 133 14 35 343 105 88 71 109
254 247 240 221 181 179 181 172 171 167 161 149 122 92 89 70 92 141 175 201 177 170 159 173 148 151 135 156 165 137 141 139 203 235 131 147 186 155 282 118 103 113 319
240 230 238 218 182 188 190 176 167 164 155 153 140 155 147 141 174 163 168 173 182 185 160 147 147 152 154 170 155 151 151 134 167 98 52 99 136 156 200 226 142 170 161
302 279 206 202 191 154 174 159 143 139 137 135 140 138 125 121 131 122 144 170 199 188 168 169 172 165 169 186 170 158 156 162 165 153 148 135 91 78 146 181 163 172 176
12 33 44 84 89 88 117 134 122 116 121 121 125 132 139 143 133 143 151 149 148 136 125 136 166 174 181 177 176 157 158 159 164 156 160 153 162 184 158 118 115 146 182
69 69 89 110 117 108 96 108 120 119 123 121 128 137 136 150 161 155 142 140 134 118 152 134 179 198 208 169 154 156 151 174 172 174 184 171 158 148 105 85 86 146 163
21 78 50 73 93 108 110 101 108 106 103 107 108 109 123 128 130 132 131 140 143 146 156 164 204 219 170 142 140 157 167 162 176 187 169 194 181 158 156 153 146 156 154
359 4 52 71 87 92 93 109 106 98 96 103 105 102 112 120 127 129 136 145 147 162 180 181 197 167 149 149 144 157 160 173 179 184 173 180 180 156 159 153 151 149 162
358 351 31 51 82 100 112 105 108 112 113 103 108 114 127 124 121 120 117 113 107 116 126 156 182 159 149 150 158 165 170 171 176 166 178 173 184 179 157 172 148 130 140
345 321 337 67 61 91 111 120 112 122 120 114 102 104 99 100 106 103 95 90 90 106 109 84 68 196 176 165 169 179 170 185 184 190 194 189 168 179 159 149 136 130 131
345 312 249 155 114 97 115 140 118 125 113 112 117 108 103 92 88 92 91 88 86 74 84 177 298 306 202 189 170 172 193 208 187 174 181 188 176 179 172 171 128 125 95
344 336 233 199 139 142 144 113 120 122 120 125 117 112 107 106 97 89 80 80 104 121 135 180 225 235 224 170 145 135 134 107 111 132 178 154 137 129 126 128 117 103 83
350 323 283 200 155 165 154 124 134 139 132 132 120 117 108 102 99 101 115 123 121 136 167 202 198 198 135 106 102 100 96 89 74 71 97 114 129 130 124 112 110 106 96
313 338 338 208 171 166 144 144 137 138 135 127 125 116 113 113 116 126 128 112 96 100 125 106 98 115 103 117 113 105 98 93 85 74 81 89 110 114 110 108 96 101 101
310 337 325 296 179 166 148 150 144 139 141 133 126 122 122 124 127 127 116 90 92 104 92 78 80 88 96 113 106 99 97 86 84 77 65 77 86 94 95 93 90 98 115
322 335 305 322 208 171 161 156 147 143 136 133 131 125 127 126 124 116 95 87 82 90 83 78 89 93 102 111 106 100 90 90 84 81 78 74 71 80 78 78 79 73 77
267 304 276 298 333 199 161 142 144 143 136 140 128 130 128 123 122 107 96 88 89 86 87 86 91 96 101 104 103 97 91 85 81 83 88 89 84 87 92 87 79 73 68
314 327 326 318 317 214 155 140 142 144 135 143 135 133 132 129 124 107 101 99 99 90 84 89 93 97 99 106 101 94 91 86 79 82 83 86 90 102 100 91 90 76 68
318 324 313 283 295 160 152 142 145 150 143 146 134 132 134 127 121 112 100 104 99 94 93 90 94 103 103 105 106 102 101 92 85 63 84 96 102 104 103 95 101 93 66
86 323 294 279 286 170 160 150 150 155 142 126 125 126 126 121 118 111 107 114 109 105 105 101 94 98 102 108 107 103 95 98 91 80 75 97 101 102 103 100 94 107 101
346 304 279 278 308 163 156 149 149 142 132 125 126 126 127 123 124 116 110 114 114 112 110 105 97 95 103 107 105 104 101 102 100 92 72 105 108 104 101 95 103 110 99
318 1 318 131 29 140 150 143 138 137 131 123 126 129 127 125 128 125 124 117 113 110 111 108 106 98 85 100 112 111 110 106 94 105 111 104 98 87 83 94 98 94 87
8 354 316 8 93 104 136 135 140 136 131 127 130 132 131 128 128 123 128 127 127 121 118 116 111 107 96 90 94 107 111 107 97 98 103 104 97 90 88 74 69 74 79
350 333 326 13 75 129 134 142 142 136 131 131 133 137 138 134 127 125 136 136 106 135 135 133 130 131 123 128 129 120 111 109 116 102 84 74 71 77 72 61 63 64 61
334 336 344 5 40 126 146 142 147 142 138 137 138 143 143 132 127 121 101 91 117 113 120 124 123 111 131 137 132 129 129 130 127 82 106 97 97 103 103 94 81 63 82